Year,Month,Day,Hour,Minute,Value (Times are PST for temperature in C)
2016,06,19,00,01,12.50
2016,06,19,00,02,12.50
2016,06,19,00,03,12.50
2016,06,19,00,04,12.50
2016,06,19,00,06,12.50
2016,06,19,00,07,12.50
2016,06,19,00,09,12.40
2016,06,19,00,11,12.40
2016,06,19,00,12,12.40
2016,06,19,00,13,12.40
2016,06,19,00,14,12.40
2016,06,19,00,16,12.30
2016,06,19,00,17,12.30
2016,06,19,00,18,12.30
2016,06,19,00,19,12.30
2016,06,19,00,21,12.30
2016,06,19,00,22,12.30
2016,06,19,00,23,12.30
2016,06,19,00,24,12.30
2016,06,19,00,26,12.30
2016,06,19,00,27,12.30
2016,06,19,00,28,12.30
2016,06,19,00,29,12.30
2016,06,19,00,30,12.30
2016,06,19,00,31,12.30
2016,06,19,00,32,12.30
2016,06,19,00,33,12.30
2016,06,19,00,34,12.20
2016,06,19,00,36,12.20
2016,06,19,00,37,12.20
2016,06,19,00,38,12.20
2016,06,19,00,39,12.20
2016,06,19,00,40,12.20
2016,06,19,00,41,12.20
2016,06,19,00,42,12.20
2016,06,19,00,43,12.20
2016,06,19,00,44,12.20
2016,06,19,00,45,12.20
2016,06,19,00,46,12.20
2016,06,19,00,47,12.20
2016,06,19,00,48,12.20
2016,06,19,00,49,12.20
2016,06,19,00,50,12.20
2016,06,19,00,51,12.20
2016,06,19,00,52,12.20
2016,06,19,00,53,12.20
2016,06,19,00,54,12.20
2016,06,19,00,55,12.20
2016,06,19,00,56,12.30
2016,06,19,00,57,12.30
2016,06,19,00,58,12.30
2016,06,19,00,59,12.30
2016,06,19,01,00,12.30
2016,06,19,01,01,12.30
2016,06,19,01,02,12.30
2016,06,19,01,03,12.30
2016,06,19,01,04,12.30
2016,06,19,01,05,12.30
2016,06,19,01,06,12.30
2016,06,19,01,07,12.30
2016,06,19,01,08,12.30
2016,06,19,01,09,12.30
2016,06,19,01,10,12.30
2016,06,19,01,11,12.30
2016,06,19,01,12,12.30
2016,06,19,01,13,12.30
2016,06,19,01,14,12.30
2016,06,19,01,15,12.30
2016,06,19,01,16,12.30
2016,06,19,01,17,12.30
2016,06,19,01,18,12.30
2016,06,19,01,19,12.30
2016,06,19,01,20,12.30
2016,06,19,01,21,12.30
2016,06,19,01,22,12.20
2016,06,19,01,23,12.20
2016,06,19,01,24,12.20
2016,06,19,01,25,12.20
2016,06,19,01,26,12.20
2016,06,19,01,27,12.20
2016,06,19,01,28,12.20
2016,06,19,01,29,12.20
2016,06,19,01,30,12.20
2016,06,19,01,31,12.20
2016,06,19,01,32,12.20
2016,06,19,01,33,12.20
2016,06,19,01,34,12.20
2016,06,19,01,35,12.10
2016,06,19,01,36,12.10
2016,06,19,01,37,12.10
2016,06,19,01,38,12.10
2016,06,19,01,39,12.10
2016,06,19,01,40,12.10
2016,06,19,01,41,12.10
2016,06,19,01,42,12.10
2016,06,19,01,43,12.10
2016,06,19,01,44,12.10
2016,06,19,01,45,12.10
2016,06,19,01,46,12.00
2016,06,19,01,47,12.00
2016,06,19,01,48,12.00
2016,06,19,01,49,12.00
2016,06,19,01,50,12.00
2016,06,19,01,51,12.00
2016,06,19,01,52,12.00
2016,06,19,01,54,12.00
2016,06,19,01,56,11.90
2016,06,19,01,57,11.90
2016,06,19,01,58,11.90
2016,06,19,01,59,11.90
2016,06,19,02,01,11.90
2016,06,19,02,02,11.90
2016,06,19,02,03,11.90
2016,06,19,02,04,11.90
2016,06,19,02,06,12.00
2016,06,19,02,07,12.00
2016,06,19,02,08,12.00
2016,06,19,02,09,12.00
2016,06,19,02,11,12.00
2016,06,19,02,12,12.00
2016,06,19,02,13,12.00
2016,06,19,02,14,12.00
2016,06,19,02,16,12.00
2016,06,19,02,17,12.10
2016,06,19,02,18,12.10
2016,06,19,02,19,12.00
2016,06,19,02,21,12.00
2016,06,19,02,22,12.00
2016,06,19,02,23,12.00
2016,06,19,02,24,12.00
2016,06,19,02,26,11.90
2016,06,19,02,27,11.90
2016,06,19,02,28,11.90
2016,06,19,02,29,11.90
2016,06,19,02,31,11.80
2016,06,19,02,32,11.80
2016,06,19,02,33,11.80
2016,06,19,02,34,11.80
2016,06,19,02,36,11.80
2016,06,19,02,37,11.80
2016,06,19,02,38,11.80
2016,06,19,02,39,11.80
2016,06,19,02,41,11.80
2016,06,19,02,42,11.70
2016,06,19,02,43,11.70
2016,06,19,02,44,11.70
2016,06,19,02,46,11.70
2016,06,19,02,47,11.60
2016,06,19,02,48,11.60
2016,06,19,02,49,11.60
2016,06,19,02,51,11.60
2016,06,19,02,52,11.60
2016,06,19,02,53,11.60
2016,06,19,02,54,11.60
2016,06,19,02,56,11.60
2016,06,19,02,57,11.60
2016,06,19,02,58,11.60
2016,06,19,02,59,11.60
2016,06,19,03,01,11.60
2016,06,19,03,02,11.60
2016,06,19,03,03,11.60
2016,06,19,03,04,11.40
2016,06,19,03,06,11.40
2016,06,19,03,07,11.40
2016,06,19,03,08,11.40
2016,06,19,03,09,11.40
2016,06,19,03,10,11.40
2016,06,19,03,11,11.40
2016,06,19,03,12,11.40
2016,06,19,03,13,11.40
2016,06,19,03,14,11.40
2016,06,19,03,15,11.40
2016,06,19,03,16,11.40
2016,06,19,03,17,11.40
2016,06,19,03,18,11.40
2016,06,19,03,19,11.40
2016,06,19,03,20,11.40
2016,06,19,03,21,11.40
2016,06,19,03,22,11.40
2016,06,19,03,23,11.40
2016,06,19,03,24,11.40
2016,06,19,03,25,11.40
2016,06,19,03,26,11.40
2016,06,19,03,27,11.40
2016,06,19,03,28,11.40
2016,06,19,03,29,11.40
2016,06,19,03,30,11.30
2016,06,19,03,31,11.30
2016,06,19,03,32,11.30
2016,06,19,03,33,11.30
2016,06,19,03,34,11.30
2016,06,19,03,35,11.30
2016,06,19,03,36,11.30
2016,06,19,03,37,11.30
2016,06,19,03,38,11.30
2016,06,19,03,39,11.30
2016,06,19,03,40,11.30
2016,06,19,03,41,11.30
2016,06,19,03,42,11.30
2016,06,19,03,43,11.30
2016,06,19,03,44,11.30
2016,06,19,03,45,11.30
2016,06,19,03,46,11.30
2016,06,19,03,47,11.30
2016,06,19,03,48,11.30
2016,06,19,03,49,11.30
2016,06,19,03,50,11.30
2016,06,19,03,51,11.30
2016,06,19,03,52,11.30
2016,06,19,03,53,11.30
2016,06,19,03,54,11.30
2016,06,19,03,55,11.30
2016,06,19,03,56,11.30
2016,06,19,03,57,11.20
2016,06,19,03,58,11.20
2016,06,19,03,59,11.20
2016,06,19,04,00,11.20
2016,06,19,04,01,11.20
2016,06,19,04,02,11.20
2016,06,19,04,03,11.20
2016,06,19,04,04,11.20
2016,06,19,04,05,11.10
2016,06,19,04,06,11.10
2016,06,19,04,07,11.10
2016,06,19,04,08,11.10
2016,06,19,04,09,11.10
2016,06,19,04,11,11.10
2016,06,19,04,12,11.10
2016,06,19,04,13,11.10
2016,06,19,04,14,11.10
2016,06,19,04,16,10.90
2016,06,19,04,17,10.90
2016,06,19,04,18,10.90
2016,06,19,04,19,10.90
2016,06,19,04,21,10.90
2016,06,19,04,22,10.90
2016,06,19,04,23,10.90
2016,06,19,04,24,10.90
2016,06,19,04,26,10.90
2016,06,19,04,27,10.90
2016,06,19,04,28,10.90
2016,06,19,04,29,10.90
2016,06,19,04,31,10.90
2016,06,19,04,32,10.90
2016,06,19,04,33,10.90
2016,06,19,04,34,10.90
2016,06,19,04,36,10.90
2016,06,19,04,37,10.90
2016,06,19,04,38,10.90
2016,06,19,04,39,10.90
2016,06,19,04,41,11.10
2016,06,19,04,42,11.10
2016,06,19,04,43,11.10
2016,06,19,04,44,11.10
2016,06,19,04,46,11.10
2016,06,19,04,47,11.10
2016,06,19,04,48,11.10
2016,06,19,04,49,11.10
2016,06,19,04,51,11.10
2016,06,19,04,52,11.10
2016,06,19,04,53,11.10
2016,06,19,04,54,11.10
2016,06,19,04,56,11.20
2016,06,19,04,57,11.20
2016,06,19,04,58,11.30
2016,06,19,04,59,11.30
2016,06,19,05,01,11.30
2016,06,19,05,02,11.30
2016,06,19,05,03,11.40
2016,06,19,05,04,11.40
2016,06,19,05,06,11.40
2016,06,19,05,07,11.40
2016,06,19,05,08,11.40
2016,06,19,05,09,11.40
2016,06,19,05,11,11.40
2016,06,19,05,12,11.40
2016,06,19,05,13,11.40
2016,06,19,05,14,11.40
2016,06,19,05,16,11.30
2016,06,19,05,17,11.30
2016,06,19,05,18,11.30
2016,06,19,05,19,11.30
2016,06,19,05,21,11.30
2016,06,19,05,22,11.30
2016,06,19,05,23,11.30
2016,06,19,05,24,11.30
2016,06,19,05,26,11.30
2016,06,19,05,27,11.30
2016,06,19,05,28,11.20
2016,06,19,05,29,11.20
2016,06,19,05,30,11.20
2016,06,19,05,31,11.20
2016,06,19,05,32,11.20
2016,06,19,05,33,11.20
2016,06,19,05,34,11.20
2016,06,19,05,36,11.20
2016,06,19,05,37,11.20
2016,06,19,05,38,11.20
2016,06,19,05,39,11.20
2016,06,19,05,40,11.20
2016,06,19,05,41,11.20
2016,06,19,05,42,11.20
2016,06,19,05,43,11.20
2016,06,19,05,44,11.20
2016,06,19,05,45,11.20
2016,06,19,05,46,11.20
2016,06,19,05,47,11.20
2016,06,19,05,48,11.20
2016,06,19,05,49,11.20
2016,06,19,05,50,11.20
2016,06,19,05,51,11.20
2016,06,19,05,52,11.20
2016,06,19,05,53,11.20
2016,06,19,05,54,11.20
2016,06,19,05,55,11.20
2016,06,19,05,56,11.20
2016,06,19,05,57,11.20
2016,06,19,05,58,11.20
2016,06,19,05,59,11.20
2016,06,19,06,00,11.20
2016,06,19,06,01,11.20
2016,06,19,06,02,11.20
2016,06,19,06,03,11.20
2016,06,19,06,04,11.20
2016,06,19,06,05,11.20
2016,06,19,06,06,11.20
2016,06,19,06,07,11.20
2016,06,19,06,08,11.20
2016,06,19,06,09,11.20
2016,06,19,06,10,11.20
2016,06,19,06,11,11.20
2016,06,19,06,12,11.20
2016,06,19,06,13,11.20
2016,06,19,06,14,11.20
2016,06,19,06,15,11.20
2016,06,19,06,16,11.20
2016,06,19,06,17,11.20
2016,06,19,06,18,11.20
2016,06,19,06,19,11.20
2016,06,19,06,20,11.30
2016,06,19,06,21,11.30
2016,06,19,06,22,11.30
2016,06,19,06,23,11.30
2016,06,19,06,24,11.30
2016,06,19,06,25,11.30
2016,06,19,06,26,11.30
2016,06,19,06,27,11.30
2016,06,19,06,28,11.30
2016,06,19,06,29,11.30
2016,06,19,06,30,11.30
2016,06,19,06,31,11.30
2016,06,19,06,32,11.30
2016,06,19,06,33,11.30
2016,06,19,06,34,11.30
2016,06,19,06,35,11.30
2016,06,19,06,36,11.30
2016,06,19,06,37,11.30
2016,06,19,06,38,11.30
2016,06,19,06,39,11.40
2016,06,19,06,40,11.40
2016,06,19,06,41,11.40
2016,06,19,06,42,11.40
2016,06,19,06,43,11.40
2016,06,19,06,44,11.40
2016,06,19,06,45,11.40
2016,06,19,06,46,11.40
2016,06,19,06,47,11.40
2016,06,19,06,49,11.40
2016,06,19,06,51,11.40
2016,06,19,06,52,11.40
2016,06,19,06,53,11.40
2016,06,19,06,54,11.40
2016,06,19,06,56,11.60
2016,06,19,06,57,11.60
2016,06,19,06,58,11.60
2016,06,19,06,59,11.60
2016,06,19,07,01,11.60
2016,06,19,07,02,11.60
2016,06,19,07,03,11.60
2016,06,19,07,04,11.60
2016,06,19,07,06,11.60
2016,06,19,07,07,11.60
2016,06,19,07,08,11.60
2016,06,19,07,09,11.60
2016,06,19,07,11,11.60
2016,06,19,07,12,11.60
2016,06,19,07,13,11.60
2016,06,19,07,14,11.60
2016,06,19,07,16,11.60
2016,06,19,07,17,11.70
2016,06,19,07,18,11.70
2016,06,19,07,19,11.70
2016,06,19,07,21,11.70
2016,06,19,07,22,11.70
2016,06,19,07,23,11.70
2016,06,19,07,24,11.70
2016,06,19,07,26,11.60
2016,06,19,07,27,11.60
2016,06,19,07,28,11.60
2016,06,19,07,29,11.60
2016,06,19,07,31,11.60
2016,06,19,07,32,11.70
2016,06,19,07,33,11.70
2016,06,19,07,34,11.70
2016,06,19,07,36,11.70
2016,06,19,07,37,11.70
2016,06,19,07,38,11.70
2016,06,19,07,39,11.70
2016,06,19,07,41,11.70
2016,06,19,07,42,11.70
2016,06,19,07,43,11.80
2016,06,19,07,44,11.80
2016,06,19,07,46,11.80
2016,06,19,07,47,11.80
2016,06,19,07,48,11.80
2016,06,19,07,49,11.80
2016,06,19,07,51,11.80
2016,06,19,07,52,11.80
2016,06,19,07,53,11.80
2016,06,19,07,54,11.80
2016,06,19,07,55,11.80
2016,06,19,07,56,11.80
2016,06,19,07,57,11.80
2016,06,19,07,58,11.80
2016,06,19,07,59,11.80
2016,06,19,08,00,11.90
2016,06,19,08,01,11.90
2016,06,19,08,02,11.90
2016,06,19,08,03,11.90
2016,06,19,08,04,11.90
2016,06,19,08,06,12.00
2016,06,19,08,07,12.00
2016,06,19,08,08,12.00
2016,06,19,08,09,12.00
2016,06,19,08,10,12.00
2016,06,19,08,11,12.00
2016,06,19,08,12,12.00
2016,06,19,08,13,12.00
2016,06,19,08,14,12.00
2016,06,19,08,15,12.10
2016,06,19,08,16,12.10
2016,06,19,08,17,12.10
2016,06,19,08,18,12.10
2016,06,19,08,19,12.20
2016,06,19,08,20,12.20
2016,06,19,08,21,12.30
2016,06,19,08,22,12.30
2016,06,19,08,23,12.30
2016,06,19,08,24,12.40
2016,06,19,08,25,12.40
2016,06,19,08,26,12.50
2016,06,19,08,27,12.50
2016,06,19,08,28,12.50
2016,06,19,08,29,12.50
2016,06,19,08,30,12.50
2016,06,19,08,31,12.50
2016,06,19,08,32,12.50
2016,06,19,08,33,12.60
2016,06,19,08,34,12.60
2016,06,19,08,35,12.70
2016,06,19,08,36,12.80
2016,06,19,08,37,12.80
2016,06,19,08,38,12.90
2016,06,19,08,39,12.90
2016,06,19,08,40,13.00
2016,06,19,08,41,13.10
2016,06,19,08,42,13.10
2016,06,19,08,43,13.20
2016,06,19,08,44,13.20
2016,06,19,08,45,13.30
2016,06,19,08,46,13.30
2016,06,19,08,47,13.50
2016,06,19,08,48,13.60
2016,06,19,08,49,13.60
2016,06,19,08,50,13.60
2016,06,19,08,51,13.60
2016,06,19,08,52,13.70
2016,06,19,08,53,13.70
2016,06,19,08,54,13.70
2016,06,19,08,55,13.70
2016,06,19,08,56,13.70
2016,06,19,08,57,13.70
2016,06,19,08,58,13.70
2016,06,19,08,59,13.80
2016,06,19,09,00,13.90
2016,06,19,09,01,13.90
2016,06,19,09,02,14.00
2016,06,19,09,03,14.00
2016,06,19,09,04,14.10
2016,06,19,09,05,14.20
2016,06,19,09,06,14.20
2016,06,19,09,07,14.20
2016,06,19,09,08,14.30
2016,06,19,09,09,14.30
2016,06,19,09,10,14.50
2016,06,19,09,11,14.60
2016,06,19,09,12,14.60
2016,06,19,09,13,14.70
2016,06,19,09,14,14.80
2016,06,19,09,15,14.80
2016,06,19,09,16,14.80
2016,06,19,09,17,14.90
2016,06,19,09,18,14.90
2016,06,19,09,19,15.00
2016,06,19,09,20,15.10
2016,06,19,09,21,15.20
2016,06,19,09,22,15.30
2016,06,19,09,24,15.40
2016,06,19,09,26,15.50
2016,06,19,09,27,15.50
2016,06,19,09,28,15.50
2016,06,19,09,29,15.50
2016,06,19,09,31,15.50
2016,06,19,09,32,15.50
2016,06,19,09,33,15.40
2016,06,19,09,34,15.40
2016,06,19,09,36,15.40
2016,06,19,09,37,15.40
2016,06,19,09,38,15.40
2016,06,19,09,39,15.40
2016,06,19,09,41,15.50
2016,06,19,09,42,15.50
2016,06,19,09,43,15.50
2016,06,19,09,44,15.50
2016,06,19,09,46,15.50
2016,06,19,09,47,15.50
2016,06,19,09,48,15.50
2016,06,19,09,49,15.50
2016,06,19,09,51,15.50
2016,06,19,09,52,15.50
2016,06,19,09,53,15.60
2016,06,19,09,54,15.60
2016,06,19,09,56,15.50
2016,06,19,09,57,15.60
2016,06,19,09,58,15.60
2016,06,19,09,59,15.60
2016,06,19,10,01,15.60
2016,06,19,10,02,15.60
2016,06,19,10,03,15.70
2016,06,19,10,04,15.70
2016,06,19,10,06,15.80
2016,06,19,10,07,15.80
2016,06,19,10,08,15.80
2016,06,19,10,09,15.80
2016,06,19,10,11,15.80
2016,06,19,10,12,15.80
2016,06,19,10,13,15.80
2016,06,19,10,14,15.80
2016,06,19,10,16,15.80
2016,06,19,10,17,15.80
2016,06,19,10,18,15.80
2016,06,19,10,19,15.80
2016,06,19,10,21,15.80
2016,06,19,10,22,15.80
2016,06,19,10,23,15.80
2016,06,19,10,24,15.80
2016,06,19,10,26,15.80
2016,06,19,10,27,15.80
2016,06,19,10,28,15.80
2016,06,19,10,29,15.80
2016,06,19,10,31,15.80
2016,06,19,10,32,15.80
2016,06,19,10,33,15.80
2016,06,19,10,34,15.90
2016,06,19,10,36,15.90
2016,06,19,10,37,15.90
2016,06,19,10,38,15.90
2016,06,19,10,39,16.10
2016,06,19,10,40,16.10
2016,06,19,10,41,16.10
2016,06,19,10,42,16.10
2016,06,19,10,43,16.10
2016,06,19,10,44,16.20
2016,06,19,10,45,16.20
2016,06,19,10,46,16.20
2016,06,19,10,47,16.30
2016,06,19,10,48,16.30
2016,06,19,10,49,16.30
2016,06,19,10,50,16.30
2016,06,19,10,51,16.40
2016,06,19,10,52,16.40
2016,06,19,10,53,16.40
2016,06,19,10,54,16.40
2016,06,19,10,55,16.40
2016,06,19,10,56,16.40
2016,06,19,10,57,16.60
2016,06,19,10,58,16.70
2016,06,19,10,59,16.70
2016,06,19,11,00,16.70
2016,06,19,11,01,16.70
2016,06,19,11,02,16.70
2016,06,19,11,03,16.70
2016,06,19,11,04,16.70
2016,06,19,11,05,16.80
2016,06,19,11,06,16.80
2016,06,19,11,07,16.90
2016,06,19,11,08,16.90
2016,06,19,11,09,16.90
2016,06,19,11,10,16.90
2016,06,19,11,11,17.00
2016,06,19,11,12,17.10
2016,06,19,11,13,17.20
2016,06,19,11,14,17.20
2016,06,19,11,15,17.30
2016,06,19,11,16,17.30
2016,06,19,11,17,17.30
2016,06,19,11,18,17.30
2016,06,19,11,19,17.30
2016,06,19,11,20,17.30
2016,06,19,11,21,17.20
2016,06,19,11,22,17.10
2016,06,19,11,23,17.00
2016,06,19,11,24,17.00
2016,06,19,11,25,17.00
2016,06,19,11,26,17.00
2016,06,19,11,27,17.00
2016,06,19,11,28,17.00
2016,06,19,11,29,17.00
2016,06,19,11,30,17.10
2016,06,19,11,31,17.10
2016,06,19,11,32,17.10
2016,06,19,11,33,17.10
2016,06,19,11,34,17.10
2016,06,19,11,35,17.10
2016,06,19,11,36,17.20
2016,06,19,11,37,17.10
2016,06,19,11,38,17.00
2016,06,19,11,39,17.00
2016,06,19,11,40,17.00
2016,06,19,11,41,17.00
2016,06,19,11,42,17.00
2016,06,19,11,43,17.00
2016,06,19,11,44,17.10
2016,06,19,11,45,17.10
2016,06,19,11,46,17.10
2016,06,19,11,47,17.10
2016,06,19,11,48,17.00
2016,06,19,11,49,17.00
2016,06,19,11,50,17.00
2016,06,19,11,51,16.90
2016,06,19,11,52,16.90
2016,06,19,11,53,16.90
2016,06,19,11,54,16.90
2016,06,19,11,55,16.90
2016,06,19,11,56,17.00
2016,06,19,11,57,17.00
2016,06,19,11,58,17.10
2016,06,19,11,59,17.10
2016,06,19,12,00,17.20
2016,06,19,12,02,17.30
2016,06,19,12,03,17.30
2016,06,19,12,04,17.40
2016,06,19,12,06,17.60
2016,06,19,12,07,17.70
2016,06,19,12,08,17.70
2016,06,19,12,09,17.80
2016,06,19,12,11,17.90
2016,06,19,12,12,17.90
2016,06,19,12,13,17.90
2016,06,19,12,14,17.90
2016,06,19,12,16,17.90
2016,06,19,12,17,17.90
2016,06,19,12,18,17.90
2016,06,19,12,19,17.90
2016,06,19,12,21,17.90
2016,06,19,12,22,17.90
2016,06,19,12,23,17.90
2016,06,19,12,24,17.80
2016,06,19,12,26,17.90
2016,06,19,12,27,17.90
2016,06,19,12,28,17.90
2016,06,19,12,29,17.90
2016,06,19,12,31,18.10
2016,06,19,12,32,18.10
2016,06,19,12,33,18.20
2016,06,19,12,34,18.20
2016,06,19,12,36,18.20
2016,06,19,12,37,18.20
2016,06,19,12,38,18.20
2016,06,19,12,39,18.20
2016,06,19,12,41,18.20
2016,06,19,12,42,18.20
2016,06,19,12,43,18.20
2016,06,19,12,44,18.20
2016,06,19,12,46,18.30
2016,06,19,12,47,18.30
2016,06,19,12,48,18.30
2016,06,19,12,49,18.40
2016,06,19,12,51,18.50
2016,06,19,12,52,18.60
2016,06,19,12,53,18.60
2016,06,19,12,54,18.70
2016,06,19,12,56,18.70
2016,06,19,12,57,18.70
2016,06,19,12,58,18.70
2016,06,19,12,59,18.60
2016,06,19,13,01,18.50
2016,06,19,13,02,18.50
2016,06,19,13,03,18.40
2016,06,19,13,04,18.30
2016,06,19,13,06,18.20
2016,06,19,13,07,18.20
2016,06,19,13,08,18.20
2016,06,19,13,09,18.20
2016,06,19,13,11,18.20
2016,06,19,13,12,18.20
2016,06,19,13,13,18.30
2016,06,19,13,14,18.30
2016,06,19,13,16,18.40
2016,06,19,13,17,18.40
2016,06,19,13,18,18.40
2016,06,19,13,19,18.50
2016,06,19,13,21,18.50
2016,06,19,13,22,18.40
2016,06,19,13,23,18.40
2016,06,19,13,24,18.40
2016,06,19,13,25,18.40
2016,06,19,13,26,18.30
2016,06,19,13,27,18.30
2016,06,19,13,28,18.30
2016,06,19,13,29,18.20
2016,06,19,13,30,18.20
2016,06,19,13,31,18.20
2016,06,19,13,32,18.10
2016,06,19,13,33,18.10
2016,06,19,13,34,18.10
2016,06,19,13,35,18.10
2016,06,19,13,36,18.10
2016,06,19,13,37,18.20
2016,06,19,13,38,18.20
2016,06,19,13,39,18.30
2016,06,19,13,40,18.40
2016,06,19,13,41,18.50
2016,06,19,13,42,18.70
2016,06,19,13,43,18.80
2016,06,19,13,44,18.90
2016,06,19,13,45,18.90
2016,06,19,13,46,19.10
2016,06,19,13,47,19.10
2016,06,19,13,48,19.10
2016,06,19,13,49,19.10
2016,06,19,13,50,19.10
2016,06,19,13,51,19.10
2016,06,19,13,52,19.20
2016,06,19,13,53,19.20
2016,06,19,13,54,19.20
2016,06,19,13,55,19.20
2016,06,19,13,56,19.10
2016,06,19,13,57,19.10
2016,06,19,13,58,18.90
2016,06,19,13,59,18.90
2016,06,19,14,00,18.90
2016,06,19,14,01,18.70
2016,06,19,14,02,18.70
2016,06,19,14,03,18.60
2016,06,19,14,04,18.50
2016,06,19,14,05,18.40
2016,06,19,14,06,18.20
2016,06,19,14,07,18.20
2016,06,19,14,08,18.10
2016,06,19,14,09,17.90
2016,06,19,14,10,17.80
2016,06,19,14,11,17.70
2016,06,19,14,12,17.60
2016,06,19,14,13,17.50
2016,06,19,14,14,17.40
2016,06,19,14,15,17.30
2016,06,19,14,16,17.30
2016,06,19,14,17,17.30
2016,06,19,14,18,17.30
2016,06,19,14,19,17.30
2016,06,19,14,20,17.30
2016,06,19,14,21,17.30
2016,06,19,14,22,17.30
2016,06,19,14,23,17.30
2016,06,19,14,24,17.20
2016,06,19,14,25,17.20
2016,06,19,14,26,17.20
2016,06,19,14,27,17.20
2016,06,19,14,28,17.10
2016,06,19,14,29,17.10
2016,06,19,14,30,17.10
2016,06,19,14,31,17.10
2016,06,19,14,32,17.10
2016,06,19,14,33,17.10
2016,06,19,14,34,17.20
2016,06,19,14,35,17.20
2016,06,19,14,36,17.20
2016,06,19,14,37,17.30
2016,06,19,14,38,17.30
2016,06,19,14,39,17.30
2016,06,19,14,40,17.40
2016,06,19,14,41,17.40
2016,06,19,14,42,17.40
2016,06,19,14,43,17.50
2016,06,19,14,44,17.50
2016,06,19,14,45,17.60
2016,06,19,14,46,17.70
2016,06,19,14,48,17.90
2016,06,19,14,49,17.90
2016,06,19,14,51,18.20
2016,06,19,14,52,18.20
2016,06,19,14,53,18.30
2016,06,19,14,54,18.30
2016,06,19,14,56,18.40
2016,06,19,14,57,18.40
2016,06,19,14,58,18.40
2016,06,19,14,59,18.40
2016,06,19,15,01,18.50
2016,06,19,15,02,18.50
2016,06,19,15,03,18.50
2016,06,19,15,04,18.60
2016,06,19,15,06,18.70
2016,06,19,15,07,18.80
2016,06,19,15,08,18.90
2016,06,19,15,09,18.90
2016,06,19,15,11,19.10
2016,06,19,15,12,19.10
2016,06,19,15,13,19.20
2016,06,19,15,14,19.30
2016,06,19,15,16,19.50
2016,06,19,15,17,19.60
2016,06,19,15,18,19.70
2016,06,19,15,19,19.80
2016,06,19,15,21,19.80
2016,06,19,15,22,19.70
2016,06,19,15,23,19.50
2016,06,19,15,24,19.40
2016,06,19,15,26,19.10
2016,06,19,15,27,18.90
2016,06,19,15,28,18.90
2016,06,19,15,29,18.80
2016,06,19,15,31,18.70
2016,06,19,15,32,18.60
2016,06,19,15,33,18.60
2016,06,19,15,34,18.50
2016,06,19,15,36,18.50
2016,06,19,15,37,18.50
2016,06,19,15,38,18.40
2016,06,19,15,39,18.40
2016,06,19,15,41,18.30
2016,06,19,15,42,18.30
2016,06,19,15,43,18.20
2016,06,19,15,44,18.20
2016,06,19,15,46,18.20
2016,06,19,15,47,18.20
2016,06,19,15,48,18.30
2016,06,19,15,49,18.30
2016,06,19,15,51,18.50
2016,06,19,15,52,18.50
2016,06,19,15,53,18.50
2016,06,19,15,54,18.50
2016,06,19,15,56,18.50
2016,06,19,15,57,18.40
2016,06,19,15,58,18.30
2016,06,19,15,59,18.30
2016,06,19,16,01,18.20
2016,06,19,16,02,18.20
2016,06,19,16,03,18.10
2016,06,19,16,04,18.10
2016,06,19,16,06,18.10
2016,06,19,16,07,18.10
2016,06,19,16,08,18.10
2016,06,19,16,09,18.10
2016,06,19,16,10,18.10
2016,06,19,16,11,18.10
2016,06,19,16,12,18.10
2016,06,19,16,13,18.20
2016,06,19,16,14,18.10
2016,06,19,16,15,18.10
2016,06,19,16,16,18.10
2016,06,19,16,17,18.10
2016,06,19,16,18,17.90
2016,06,19,16,19,17.90
2016,06,19,16,20,17.90
2016,06,19,16,21,17.80
2016,06,19,16,22,17.80
2016,06,19,16,23,17.70
2016,06,19,16,24,17.70
2016,06,19,16,25,17.70
2016,06,19,16,26,17.70
2016,06,19,16,27,17.60
2016,06,19,16,28,17.60
2016,06,19,16,29,17.50
2016,06,19,16,30,17.50
2016,06,19,16,31,17.50
2016,06,19,16,32,17.50
2016,06,19,16,33,17.50
2016,06,19,16,34,17.60
2016,06,19,16,35,17.70
2016,06,19,16,36,17.70
2016,06,19,16,37,17.80
2016,06,19,16,38,17.80
2016,06,19,16,39,17.90
2016,06,19,16,40,17.90
2016,06,19,16,41,17.90
2016,06,19,16,42,17.80
2016,06,19,16,43,17.80
2016,06,19,16,44,17.70
2016,06,19,16,45,17.70
2016,06,19,16,46,17.70
2016,06,19,16,47,17.70
2016,06,19,16,48,17.60
2016,06,19,16,49,17.60
2016,06,19,16,50,17.60
2016,06,19,16,51,17.60
2016,06,19,16,52,17.60
2016,06,19,16,53,17.60
2016,06,19,16,54,17.60
2016,06,19,16,55,17.60
2016,06,19,16,56,17.60
2016,06,19,16,57,17.60
2016,06,19,16,58,17.60
2016,06,19,16,59,17.60
2016,06,19,17,00,17.50
2016,06,19,17,01,17.50
2016,06,19,17,02,17.50
2016,06,19,17,03,17.40
2016,06,19,17,04,17.40
2016,06,19,17,05,17.40
2016,06,19,17,06,17.40
2016,06,19,17,07,17.40
2016,06,19,17,08,17.40
2016,06,19,17,09,17.40
2016,06,19,17,10,17.40
2016,06,19,17,11,17.40
2016,06,19,17,12,17.40
2016,06,19,17,13,17.40
2016,06,19,17,14,17.50
2016,06,19,17,15,17.50
2016,06,19,17,16,17.50
2016,06,19,17,17,17.40
2016,06,19,17,18,17.50
2016,06,19,17,19,17.50
2016,06,19,17,20,17.60
2016,06,19,17,21,17.70
2016,06,19,17,22,17.70
2016,06,19,17,23,17.80
2016,06,19,17,24,17.90
2016,06,19,17,25,17.90
2016,06,19,17,26,18.10
2016,06,19,17,27,18.20
2016,06,19,17,28,18.20
2016,06,19,17,29,18.20
2016,06,19,17,30,18.20
2016,06,19,17,31,18.20
2016,06,19,17,32,18.20
2016,06,19,17,33,18.20
2016,06,19,17,34,18.20
2016,06,19,17,36,18.20
2016,06,19,17,37,18.20
2016,06,19,17,38,18.20
2016,06,19,17,39,18.20
2016,06,19,17,41,18.20
2016,06,19,17,42,18.20
2016,06,19,17,43,18.30
2016,06,19,17,44,18.30
2016,06,19,17,46,18.30
2016,06,19,17,47,18.30
2016,06,19,17,48,18.30
2016,06,19,17,49,18.40
2016,06,19,17,51,18.30
2016,06,19,17,52,18.30
2016,06,19,17,53,18.30
2016,06,19,17,54,18.30
2016,06,19,17,56,18.20
2016,06,19,17,57,18.20
2016,06,19,17,58,18.10
2016,06,19,17,59,18.10
2016,06,19,18,01,17.90
2016,06,19,18,02,17.90
2016,06,19,18,03,17.90
2016,06,19,18,04,17.90
2016,06,19,18,06,17.90
2016,06,19,18,07,17.90
2016,06,19,18,08,17.90
2016,06,19,18,09,17.90
2016,06,19,18,11,17.80
2016,06,19,18,12,17.80
2016,06,19,18,13,17.80
2016,06,19,18,14,17.80
2016,06,19,18,16,17.80
2016,06,19,18,17,17.80
2016,06,19,18,18,17.80
2016,06,19,18,19,17.70
2016,06,19,18,21,17.70
2016,06,19,18,22,17.70
2016,06,19,18,23,17.60
2016,06,19,18,24,17.60
2016,06,19,18,26,17.60
2016,06,19,18,27,17.50
2016,06,19,18,28,17.40
2016,06,19,18,29,17.30
2016,06,19,18,31,17.30
2016,06,19,18,32,17.20
2016,06,19,18,33,17.20
2016,06,19,18,34,17.20
2016,06,19,18,36,17.20
2016,06,19,18,37,17.10
2016,06,19,18,38,17.10
2016,06,19,18,39,17.10
2016,06,19,18,41,17.10
2016,06,19,18,42,17.10
2016,06,19,18,43,17.10
2016,06,19,18,44,17.10
2016,06,19,18,46,17.10
2016,06,19,18,47,17.00
2016,06,19,18,48,17.00
2016,06,19,18,49,17.00
2016,06,19,18,51,17.00
2016,06,19,18,52,17.00
2016,06,19,18,53,16.90
2016,06,19,18,54,16.90
2016,06,19,18,55,16.90
2016,06,19,18,56,16.90
2016,06,19,18,57,16.90
2016,06,19,18,58,16.90
2016,06,19,18,59,16.90
2016,06,19,19,00,16.90
2016,06,19,19,01,17.00
2016,06,19,19,02,17.00
2016,06,19,19,03,17.00
2016,06,19,19,04,17.10
2016,06,19,19,06,17.10
2016,06,19,19,07,17.20
2016,06,19,19,08,17.20
2016,06,19,19,09,17.10
2016,06,19,19,10,17.10
2016,06,19,19,11,17.20
2016,06,19,19,12,17.20
2016,06,19,19,13,17.20
2016,06,19,19,14,17.20
2016,06,19,19,15,17.20
2016,06,19,19,16,17.20
2016,06,19,19,17,17.20
2016,06,19,19,18,17.20
2016,06,19,19,19,17.20
2016,06,19,19,20,17.20
2016,06,19,19,21,17.20
2016,06,19,19,22,17.10